Sparta, TN

4:28 PM CST on December 18, 2017 (GMT -0600)
Upper Cumberland Regional

Weather History for KSRB - September, 2012

Change the Weather History Date:

Tuesday, September 11, 2012

  Actual Average (KCSV) Record (KCSV)
Temperature  
Mean Temperature 66 °F -  
Max Temperature 82 °F 78 °F 88 °F (1983)
Min Temperature 51 °F 57 °F 40 °F (1969)
Cooling Degree Days 2    
Growing Degree Days 16 (Base 50)    
Moisture  
Dew Point 59 °F    
Average Humidity 80    
Maximum Humidity 100    
Minimum Humidity 45    
Precipitation  
Precipitation 0.00 in - - ()
Sea Level Pressure  
Sea Level Pressure 30.21 in    
Wind  
Wind Speed 1 mph ()    
Max Wind Speed 8 mph    
Max Gust Speed -    
Visibility 9.7 miles    
Events      
Averages and records for this station are not official NWS values.
T = Trace of Precipitation, MM = Missing Value Source: Averaged Metar Reports

Daily Weather History Graph

Daily Weather History Graph

Search for Another Location

Airport or City:

Trip Planner

Search our weather history database for the weather conditions in past years. The results will help you decide how hot, cold, wet, or windy it might be!

Date:

Astronomy

Sep. 11, 2012 Rise Set
Actual Time 6:21 AM CDT 6:54 PM CDT
Civil Twilight 5:56 AM CDT 7:20 PM CDT
Nautical Twilight 5:25 AM CDT 7:50 PM CDT
Astronomical Twilight 4:54 AM CDT 8:21 PM CDT
Moon 1:45 AM CDT (9/11) 3:58 PM CDT (9/11)
Length of Visible Light 13h 24m
Length of Day
12h 32m
Waning Crescent, 21% of the Moon is Illuminated
Sep 11
Waning Crescent
Sep 15
New
Sep 22
First Quarter
Sep 29
Full
Oct 8
Last Quarter

Hourly Weather History & Observations

Time (CDT) Temp. Heat Index Dew Point Humidity Pressure Visibility Wind Dir Wind Speed Gust Speed Precip Events Conditions
12:35 AM 53.6 °F - 53.6 °F 100% 30.17 in 9.0 mi Calm Calm - N/A   Clear
12:55 AM 53.6 °F - 53.6 °F 100% 30.17 in 10.0 mi Calm Calm - N/A   Clear
1:15 AM 53.6 °F - 53.6 °F 100% 30.17 in 9.0 mi Calm Calm - N/A   Clear
1:55 AM 53.6 °F - 53.6 °F 100% 30.16 in 9.0 mi Calm Calm - N/A   Clear
2:15 AM 53.6 °F - 53.6 °F 100% 30.16 in 10.0 mi Calm Calm - N/A   Clear
2:35 AM 51.8 °F - 51.8 °F 100% 30.16 in 8.0 mi Calm Calm - N/A   Clear
2:55 AM 51.8 °F - 51.8 °F 100% 30.16 in 9.0 mi Calm Calm - N/A   Clear
3:15 AM 51.8 °F - 51.8 °F 100% 30.17 in 7.0 mi Calm Calm - N/A   Clear
3:35 AM 51.8 °F - 51.8 °F 100% 30.16 in 10.0 mi Calm Calm - N/A   Clear
3:55 AM 51.8 °F - 51.8 °F 100% 30.17 in 10.0 mi Calm Calm - N/A   Clear
4:15 AM 51.8 °F - 51.8 °F 100% 30.17 in 10.0 mi Calm Calm - N/A   Clear
4:35 AM 51.8 °F - 51.8 °F 100% 30.18 in 10.0 mi Calm Calm - N/A   Clear
4:55 AM 51.8 °F - 51.8 °F 100% 30.18 in 10.0 mi Calm Calm - N/A   Clear
5:15 AM 51.8 °F - 51.8 °F 100% 30.19 in 10.0 mi Calm Calm - N/A   Clear
5:35 AM 51.8 °F - 51.8 °F 100% 30.20 in 10.0 mi Calm Calm - N/A   Clear
5:55 AM 51.8 °F - 50.0 °F 94% 30.20 in 10.0 mi Calm Calm - N/A   Clear
6:15 AM 51.8 °F - 50.0 °F 94% 30.21 in 10.0 mi Calm Calm - N/A   Clear
6:35 AM 51.8 °F - 51.8 °F 100% 30.22 in 10.0 mi Calm Calm - N/A   Clear
6:55 AM 53.6 °F - 51.8 °F 94% 30.23 in 10.0 mi Calm Calm - N/A   Clear
7:15 AM 55.4 °F - 55.4 °F 100% 30.23 in 10.0 mi Calm Calm - N/A   Clear
7:35 AM 57.2 °F - 57.2 °F 100% 30.23 in 10.0 mi Calm Calm - N/A   Clear
7:55 AM 60.8 °F - 60.8 °F 100% 30.24 in 10.0 mi Calm Calm - N/A   Clear
8:15 AM 64.4 °F - 60.8 °F 88% 30.24 in 10.0 mi Calm Calm - N/A   Clear
8:35 AM 64.4 °F - 60.8 °F 88% 30.25 in 10.0 mi Calm Calm - N/A   Scattered Clouds
8:55 AM 66.2 °F - 60.8 °F 83% 30.25 in 10.0 mi Calm Calm - N/A   Mostly Cloudy
9:15 AM 69.8 °F - 62.6 °F 78% 30.26 in 10.0 mi Calm Calm - N/A   Scattered Clouds
9:35 AM 71.6 °F - 62.6 °F 73% 30.26 in 10.0 mi SSW 4.6 mph - N/A   Partly Cloudy
9:55 AM 73.4 °F - 60.8 °F 65% 30.26 in 10.0 mi South 5.8 mph - N/A   Clear
10:15 AM 73.4 °F - 60.8 °F 65% 30.27 in 10.0 mi SSE 8.1 mph - N/A   Clear
10:35 AM 73.4 °F - 60.8 °F 65% 30.26 in 10.0 mi Variable 5.8 mph - N/A   Clear
10:55 AM 75.2 °F - 60.8 °F 61% 30.26 in 10.0 mi SW 5.8 mph - N/A   Clear
11:15 AM 77.0 °F - 60.8 °F 57% 30.26 in 10.0 mi Calm Calm - N/A   Clear
11:35 AM 77.0 °F - 60.8 °F 57% 30.25 in 10.0 mi Calm Calm - N/A   Clear
11:55 AM 78.8 °F - 60.8 °F 54% 30.25 in 10.0 mi Variable 3.5 mph - N/A   Clear
12:15 PM 80.6 °F 81.1 °F 59.0 °F 48% 30.24 in 10.0 mi Calm Calm - N/A   Clear
12:35 PM 80.6 °F 81.1 °F 59.0 °F 48% 30.24 in 10.0 mi Variable 4.6 mph - N/A   Clear
12:55 PM 82.4 °F 82.9 °F 60.8 °F 48% 30.23 in 10.0 mi Variable 4.6 mph - N/A   Partly Cloudy
1:15 PM 80.6 °F 80.8 °F 57.2 °F 45% 30.23 in 10.0 mi West 3.5 mph - N/A   Partly Cloudy
1:35 PM 80.6 °F 81.1 °F 59.0 °F 48% 30.22 in 10.0 mi Variable 6.9 mph - N/A   Scattered Clouds
1:55 PM 80.6 °F 81.1 °F 59.0 °F 48% 30.22 in 7.0 mi WSW 5.8 mph - N/A   Partly Cloudy
2:15 PM 82.4 °F 82.9 °F 60.8 °F 48% 30.21 in 10.0 mi West 5.8 mph - N/A   Partly Cloudy
2:35 PM 80.6 °F 81.1 °F 59.0 °F 48% 30.20 in 10.0 mi Calm Calm - N/A   Partly Cloudy
2:55 PM 82.4 °F 82.9 °F 60.8 °F 48% 30.20 in 6.0 mi Variable 3.5 mph - N/A   Scattered Clouds
3:15 PM 82.4 °F 82.9 °F 60.8 °F 48% 30.19 in 10.0 mi WSW 3.5 mph - N/A   Partly Cloudy
3:35 PM 82.4 °F 82.5 °F 59.0 °F 45% 30.19 in 10.0 mi Calm Calm - N/A   Partly Cloudy
3:55 PM 82.4 °F 82.9 °F 60.8 °F 48% 30.19 in 10.0 mi West 5.8 mph - N/A   Partly Cloudy
4:15 PM 82.4 °F 82.9 °F 60.8 °F 48% 30.19 in 10.0 mi West 4.6 mph - N/A   Clear
4:35 PM 80.6 °F 81.5 °F 60.8 °F 51% 30.19 in 6.0 mi South 3.5 mph - N/A   Mostly Cloudy
4:55 PM 78.8 °F - 60.8 °F 54% 30.19 in 10.0 mi SW 3.5 mph - N/A   Scattered Clouds
5:15 PM 78.8 °F - 60.8 °F 54% 30.19 in 10.0 mi Calm Calm - N/A   Clear
5:35 PM 75.2 °F - 64.4 °F 69% 30.19 in 10.0 mi Calm Calm - N/A   Clear
5:55 PM 77.0 °F - 64.4 °F 65% 30.19 in 10.0 mi Calm Calm - N/A   Partly Cloudy
6:15 PM 73.4 °F - 64.4 °F 73% 30.19 in 10.0 mi Calm Calm - N/A   Partly Cloudy
6:35 PM 73.4 °F - 64.4 °F 73% 30.19 in 10.0 mi Calm Calm - N/A   Unknown
6:55 PM 69.8 °F - 62.6 °F 78% 30.19 in 10.0 mi Calm Calm - N/A   Clear
7:15 PM 66.2 °F - 62.6 °F 88% 30.20 in 10.0 mi Calm Calm - N/A   Unknown
7:35 PM 66.2 °F - 64.4 °F 94% 30.21 in 10.0 mi Calm Calm - N/A   Partly Cloudy
7:55 PM 66.2 °F - 64.4 °F 94% 30.21 in 10.0 mi Calm Calm - N/A   Mostly Cloudy
8:15 PM 69.8 °F - 64.4 °F 83% 30.22 in 10.0 mi Calm Calm - N/A   Mostly Cloudy
8:35 PM 66.2 °F - 64.4 °F 94% 30.23 in 10.0 mi Calm Calm - N/A   Partly Cloudy
8:55 PM 64.4 °F - 62.6 °F 94% 30.23 in 10.0 mi Calm Calm - N/A   Clear
9:15 PM 64.4 °F - 62.6 °F 94% 30.23 in 10.0 mi Calm Calm - N/A   Scattered Clouds
9:35 PM 62.6 °F - 62.6 °F 100% 30.24 in 10.0 mi Calm Calm - N/A   Unknown
9:55 PM 62.6 °F - 62.6 °F 100% 30.24 in 10.0 mi Calm Calm - N/A   Partly Cloudy
10:15 PM 62.6 °F - 62.6 °F 100% 30.24 in 10.0 mi Calm Calm - N/A   Clear
10:35 PM 62.6 °F - 62.6 °F 100% 30.25 in 10.0 mi Calm Calm - N/A   Clear
10:55 PM 62.6 °F - 62.6 °F 100% 30.25 in 10.0 mi Calm Calm - N/A   Scattered Clouds
11:15 PM 64.4 °F - 64.4 °F 100% 30.25 in 10.0 mi Calm Calm - N/A   Mostly Cloudy
11:35 PM 64.4 °F - 62.6 °F 94% 30.25 in 10.0 mi Calm Calm - N/A   Mostly Cloudy
11:55 PM 66.2 °F - 60.8 °F 83% 30.25 in 10.0 mi Calm Calm - N/A   Mostly Cloudy